This is the latest recevied weather packets stored in our database for station/object DO1SN-13. If no packets are shown the sender has not sent any weather packets the latest 10 day(s).
| Time | Temp. | Humidity | Pressure | Rain* | Wind** | Luminosity | Snow |
|---|---|---|---|---|---|---|---|
| 1788515394 | 32.22° C | - | 1021.4 hPa | 0 mm | - | - | - |
| 1788514665 | 33.33° C | - | 1021.5 hPa | 0 mm | - | - | - |
| 1788514301 | 32.22° C | - | 1021.6 hPa | 0 mm | - | - | - |
| 1788514301 | 32.22° C | - | 1021.6 hPa | 0 mm | - | - | - |
| 1788513937 | 32.22° C | - | 1021.7 hPa | 0 mm | - | - | - |
| 1788513573 | 31.67° C | - | 1021.8 hPa | 0 mm | - | - | - |
| 1788513209 | 32.22° C | - | 1021.9 hPa | 0 mm | - | - | - |
| 1788512844 | 31.11° C | - | 1022 hPa | 0 mm | - | - | - |
| 1788512844 | 31.11° C | - | 1022 hPa | 0 mm | - | - | - |
| 1788512480 | 30.56° C | - | 1022.1 hPa | 0 mm | - | - | - |
| 1788512116 | 31.67° C | - | 1022.2 hPa | 0 mm | - | - | - |
| 1788511023 | 31.67° C | - | 1022.3 hPa | 0 mm | - | - | - |
| 1788511023 | 31.67° C | - | 1022.3 hPa | 0 mm | - | - | - |
| 1788510658 | 31.67° C | - | 1022.3 hPa | 0 mm | - | - | - |
| 1788510294 | 32.22° C | - | 1022.3 hPa | 0 mm | - | - | - |
| 1788509929 | 30.56° C | - | 1022.3 hPa | 0 mm | - | - | - |
| 1788509565 | 28.89° C | - | 1022.2 hPa | 0 mm | - | - | - |
| 1788509201 | 30.56° C | - | 1022.2 hPa | 0 mm | - | - | - |
| 1788508836 | 29.44° C | - | 1022.4 hPa | 0 mm | - | - | - |
| 1788508472 | 30.56° C | - | 1022.3 hPa | 0 mm | - | - | - |
| 1788508108 | 28.33° C | - | 1022.4 hPa | 0 mm | - | - | - |
| 1788507743 | 28.89° C | - | 1022.6 hPa | 0 mm | - | - | - |
| 1788507379 | 27.78° C | - | 1022.6 hPa | 0 mm | - | - | - |
| 1788507015 | 28.89° C | - | 1022.5 hPa | 0 mm | - | - | - |
| 1788506651 | 28.89° C | - | 1022.5 hPa | 0 mm | - | - | - |
* Rain latest hour (hover to see other rain measurements)
** Current wind speed in m/s (hover to see current wind gust speed)